TUBIN
1 48900U 21059X   25274.79659609  .00172544  00000-0  11999-2 0  9993
2 48900  97.6762  94.3105 0002320 172.6285 187.5013 15.73879864237915
LEDSAT
1 49069U 21073D   25274.76252404  .00653973  17963-3  17589-2 0  9995
2 49069  97.3708   2.8110 0005182 300.7901  59.2864 15.94374180229360
CUTE
1 49263U 21088D   25274.79322942  .00036748  00000-0  59541-3 0  9996
2 49263  97.4413 354.7352 0006630 164.4340 195.7117 15.52680268222112
TeikyoSat 4
1 49396U 21102B   25274.82501494  .00005570  00000-0  36357-3 0  9994
2 49396  97.4017 309.1038 0014296 100.5725 259.7115 15.08156437213766
Z-Sat
1 49399U 21102E   25274.82852720  .00010578  00000-0  56003-3 0  9992
2 49399  97.3703 312.9377 0019384  70.2667 290.0654 15.15439386214277
KOSEN 1
1 49402U 21102H   25274.68289228  .00017339  00000-0  75973-3 0  9997
2 49402  97.3595 317.1099 0016278  44.6864 315.5681 15.21949564214636
HO-113
1 50466U 21131B   25274.85477957  .00001867  00000-0  59487-3 0  9999
2 50466  98.5073   3.6397 0004912 142.9160 217.2368 14.40962117197902
SNUGLITE 2
1 52899U 22065F   25274.40734852  .00003823  00000-0  74587-3 0  9991
2 52899  98.1850  55.3963 0008648 113.5876 246.6235 14.63522900173139
UmKA 1 (RS40S)
1 57172U 23091G   25274.79985654  .00014187  00000-0  72418-3 0  9996
2 57172  97.5460 329.6041 0012468 302.1465  57.8558 15.16758287124782
CubeBel-2 (EU11S)
1 57175U 23091K   25274.83246631  .00023786  00000-0  10528-2 0  9997
2 57175  97.5459 331.5404 0010099 307.6419  52.3899 15.21617140124916
ENSO
1 58470U 23185J   25274.64559369  .00294403  00000-0  17996-2 0  9996
2 58470  97.3585 354.6123 0002855 341.7791  18.3372 15.76527964102851
SONATE-2
1 59112U 24043Q   25274.64641741  .00043368  00000-0  10775-2 0  9990
2 59112  97.5273  48.5169 0010667  68.2566 291.9814 15.40137508 87866
MO-122
1 60209U 24125G   25274.56134071  .00045149  00000-0  10954-2 0  9992
2 60209  97.2651 125.1433 0018599  87.2343 273.1032 15.40725300 69478
GRBBeta
1 60237U 24128C   25274.69362315  .00012421  00000-0  88267-3 0  9994
2 60237  61.9917  41.3943 0056807  81.7110 279.0417 15.03745267 67352
Curium One
1 60242U 24128H   25274.71640738  .00020756  00000-0  13372-2 0  9995
2 60242  61.9814  37.7323 0056692  78.1962 282.5482 15.07055069 67429
ROBUSTA-3A
1 60243U 24128J   25274.75736572  .00021380  00000-0  13996-2 0  9998
2 60243  61.9888  38.8245 0056248  75.7676 284.9656 15.06476724 67410
CatSat
1 60246U 24125J   25273.57430869  .00055509  00000-0  16207-2 0  9995
2 60246  97.2463 122.0353 0040294  52.6826 307.8078 15.34308884 67285
HYPERVIEW-1G (RS66S)
1 61772U 24199AP  25274.87957594  .00061953  00000-0  14915-2 0  9998
2 61772  97.3331 143.7595 0013557 134.1628 226.0736 15.40966243 94527
AO-123
1 61781U 24199AY  25274.90637141  .00017654  00000-0  60648-3 0  9999
2 61781  97.3359 141.2086 0016194 145.9932 214.2350 15.30048961 94352
ZIMSAT 2
1 61783U 24199BA  25274.85250314  .00137985  00000-0  22829-2 0  9996
2 61783  97.3277 145.5422 0012610 125.5352 234.7078 15.51624753 97790
HADES-R (SO-124)
1 62690U 25009CK  25273.19796237  .00111837  00000-0  28327-2 0  9997
2 62690  97.3989 354.1706 0001540  68.9066 291.2344 15.39293795 39405
HYDRA-T
1 62692U 25009CM  25274.19637501  .00130460  00000-0  32060-2 0  9990
2 62692  97.3989 355.2765 0001205  44.9572 315.1772 15.40140968 39561
JINJUSat 1B
1 63210U 25052A   25274.15165842  .00032386  00000-0  13563-2 0  9990
2 63210  97.4236 166.9226 0001747 307.7000  52.4079 15.23474782 30523
NUSHSAT 1
1 63211U 25052B   25274.64478058  .00035589  00000-0  14627-2 0  9991
2 63211  97.4231 167.4579 0001827 316.8643  43.2451 15.24088425 30606
TEVEL2-4
1 63213U 25052D   25274.68503628  .00033242  00000-0  13853-2 0  9993
2 63213  97.4149 167.1884 0001961 359.1827   0.9407 15.23636128 30604
TEVEL2-5
1 63214U 25052E   25274.68778565  .00033636  00000-0  14033-2 0  9996
2 63214  97.4147 167.1851 0002048   2.5920 357.5327 15.23593643 30603
TEVEL2-6
1 63215U 25052F   25274.69293991  .00033858  00000-0  14142-2 0  9990
2 63215  97.4151 167.1820 0002066   0.0997   0.0240 15.23553869 30602
TEVEL2-1
1 63217U 25052H   25274.65605424  .00033767  00000-0  14218-2 0  9999
2 63217  97.4124 167.0129 0002680   7.0137 353.1137 15.23280967 30591
TEVEL2-3
1 63218U 25052J   25274.65601082  .00033719  00000-0  14193-2 0  9995
2 63218  97.4120 167.0156 0002859   7.8815 352.2466 15.23291460 30592
TEVEL2-2
1 63219U 25052K   25274.65680157  .00033897  00000-0  14273-2 0  9992
2 63219  97.4123 167.0138 0002798   7.2930 352.8347 15.23277824 30592
TEVEL2-9
1 63237U 25052AD  25274.68469764  .00031374  00000-0  13736-2 0  9995
2 63237  97.4189 166.8404 0007103 355.5965   4.5207 15.21950761 30579
TEVEL2-7
1 63238U 25052AE  25274.69270465  .00031246  00000-0  13720-2 0  9996
2 63238  97.4192 166.8345 0007205 355.4165   4.7004 15.21850876 30575
TEVEL2-8
1 63239U 25052AF  25274.69702786  .00031041  00000-0  13642-2 0  9999
2 63239  97.4191 166.8267 0007213 355.7655   4.3518 15.21822073 30578
HYDRA-W
1 63490U 25052BL  25274.50188079  .00086994  00000-0  29076-2 0  9996
2 63490  97.4129 167.8556 0008659 351.2837   8.8252 15.30627063 30631
HADES-ICM (SO-125)
1 63492U 25052BN  25274.49735859  .00079924  00000-0  27519-2 0  9995
2 63492  97.4136 167.7256 0009292 353.5001   6.6117 15.29687662 30623
